Meridian, MS

7:01 AM CDT on August 22, 2017 (GMT -0500)
Key

Weather History for KMEI - December, 2012

Change the Weather History Date:

Sunday, December 30, 2012

  Actual Average Record
Temperature  
Mean Temperature 36 °F 45 °F  
Max Temperature 48 °F 56 °F 80 °F (1984)
Min Temperature 24 °F 34 °F 11 °F (1917)
Degree Days  
Heating Degree Days 29 20  
Month to date heating degree days 406 538  
Since 1 July heating degree days 933 988  
Cooling Degree Days 0 0  
Month to date cooling degree days 0 0  
Year to date cooling degree days 2177 2029  
Moisture  
Dew Point 26 °F    
Average Humidity 67    
Maximum Humidity 96    
Minimum Humidity 38    
Precipitation  
Precipitation 0.00 in 0.14 in 1.98 in (1988)
Month to date precipitation 9.08 4.92  
Year to date precipitation 62.75 56.02  
Sea Level Pressure  
Sea Level Pressure 30.45 in    
Wind  
Wind Speed 3 mph (NNE)    
Max Wind Speed 14 mph    
Max Gust Speed 17 mph    
Visibility 9 miles    
Events      
T = Trace of Precipitation, MM = Missing Value Source: NWS Daily Summary

Daily Weather History Graph

Daily Weather History Graph

Search for Another Location

Airport or City:

Trip Planner

Search our weather history database for the weather conditions in past years. The results will help you decide how hot, cold, wet, or windy it might be!

Date:

Astronomy

Dec. 30, 2012 Rise Set
Actual Time 6:55 AM CST 4:59 PM CST
Civil Twilight 6:28 AM CST 5:26 PM CST
Nautical Twilight 5:58 AM CST 5:57 PM CST
Astronomical Twilight 5:28 AM CST 6:27 PM CST
Moon 7:21 PM CST (12/30) 8:12 AM CST (12/30)
Length of Visible Light 10h 57m
Length of Day
10h 03m
Waning Gibbous, 95% of the Moon is Illuminated
Dec 30
Waning Gibbous
Jan 4
Last Quarter
Jan 11
New
Jan 18
First Quarter
Jan 26
Full

Hourly Weather History & Observations

Time (CST) Temp. Windchill Dew Point Humidity Pressure Visibility Wind Dir Wind Speed Gust Speed Precip Events Conditions
12:58 AM 28.0 °F 22.8 °F 23.0 °F 81% 30.42 in 10.0 mi North 4.6 mph - N/A   Clear
1:58 AM 27.0 °F - 24.1 °F 89% 30.43 in 9.0 mi Calm Calm - N/A   Clear
2:58 AM 26.1 °F - 24.1 °F 92% 30.45 in 8.0 mi Calm Calm - N/A   Clear
3:58 AM 25.0 °F - 23.0 °F 92% 30.47 in 8.0 mi Calm Calm - N/A   Clear
4:58 AM 25.0 °F - 23.0 °F 92% 30.46 in 8.0 mi Calm Calm - N/A   Clear
5:58 AM 24.1 °F - 23.0 °F 96% 30.49 in 7.0 mi Calm Calm - N/A   Clear
6:58 AM 24.1 °F - 21.9 °F 91% 30.51 in 5.0 mi Calm Calm - N/A   Clear
7:58 AM 28.0 °F 20.0 °F 24.1 °F 85% 30.52 in 7.0 mi North 8.1 mph - N/A   Clear
8:58 AM 32.0 °F 24.8 °F 25.0 °F 75% 30.55 in 9.0 mi NE 8.1 mph - N/A   Clear
9:58 AM 35.6 °F 28.0 °F 24.8 °F 65% 30.53 in 10.0 mi NE 10.4 mph - N/A   Clear
10:58 AM 39.2 °F 35.9 °F 24.8 °F 56% 30.52 in 10.0 mi NNE 4.6 mph - N/A   Clear
11:58 AM 42.1 °F 39.2 °F 24.1 °F 49% 30.49 in 10.0 mi NE 4.6 mph - N/A   Clear
12:58 PM 45.0 °F 41.2 °F 24.1 °F 44% 30.45 in 10.0 mi Variable 6.9 mph - N/A   Clear
1:58 PM 46.0 °F 42.5 °F 23.0 °F 40% 30.42 in 10.0 mi NE 6.9 mph - N/A   Clear
2:58 PM 48.0 °F - 24.1 °F 39% 30.43 in 10.0 mi East 4.6 mph - N/A   Clear
3:58 PM 46.9 °F - 24.1 °F 41% 30.42 in 10.0 mi NE 4.6 mph - N/A   Clear
4:58 PM 42.1 °F 37.7 °F 25.0 °F 51% 30.41 in 10.0 mi NNE 6.9 mph - N/A   Clear
5:58 PM 36.0 °F - 30.9 °F 82% 30.43 in 10.0 mi Calm Calm - N/A   Clear
6:58 PM 36.0 °F - 30.9 °F 82% 30.43 in 10.0 mi Calm Calm - N/A   Clear
7:58 PM 35.1 °F - 32.0 °F 89% 30.42 in 10.0 mi Calm Calm - N/A   Clear
8:58 PM 36.0 °F - 32.0 °F 86% 30.42 in 10.0 mi Calm Calm - N/A   Clear
9:58 PM 34.0 °F 31.0 °F 32.0 °F 92% 30.42 in 10.0 mi NW 3.5 mph - N/A   Clear
10:58 PM 34.0 °F - 32.0 °F 92% 30.40 in 10.0 mi Calm Calm - N/A   Clear
11:58 PM 33.1 °F - 30.9 °F 92% 30.37 in 10.0 mi Calm Calm - N/A   Clear